GW6926 Weather Reports


Display with metric or nautical units.
time (UTC)temp
F
wind
direction
speed
MPH
gust
MPH
rain 1hr
in
rain 24hr
in
rain mn
in
humidity
%
barometer
mb
20260505102033 46 228 0.0 0.0 0.00 0.00 0.00 85 1016.2
20260505101531 47 228 0.0 0.0 0.00 0.00 0.00 83 1016.0
20260505101027 47 228 0.0 0.0 0.00 0.00 0.00 84 1016.4
20260505100524 47 228 0.0 0.0 0.00 0.00 0.00 84 1016.4
20260505100021 47 228 0.0 1.0 0.00 0.00 0.00 84 1016.2
20260505095517 47 228 0.0 0.0 0.00 0.00 0.00 83 1016.3
20260505095014 47 228 0.0 1.0 0.00 0.00 0.00 83 1016.3
20260505094510 47 228 0.0 0.0 0.00 0.00 0.00 84 1016.6
20260505094007 47 228 0.0 0.0 0.00 0.00 0.00 84 1016.4
20260505093503 47 228 0.0 0.0 0.00 0.00 0.00 85 1016.3
20260505093001 47 228 0.0 1.0 0.00 0.00 0.00 85 1016.4
20260505092458 47 229 0.0 1.0 0.00 0.00 0.00 84 1016.3
20260505091955 47 228 0.0 1.0 0.00 0.00 0.00 84 1016.2
20260505091453 47 221 2.0 2.0 0.00 0.00 0.00 83 1016.2
20260505090951 47 235 0.0 0.0 0.00 0.00 0.00 84 1015.9
20260505090449 47 235 0.0 0.0 0.00 0.00 0.00 84 1016.3
20260505085946 47 235 0.0 0.0 0.00 0.00 0.00 83 1016.2
20260505085443 47 237 0.0 0.0 0.00 0.00 0.00 83 1016.3
20260505084942 47 237 0.0 0.0 0.00 0.00 0.00 83 1016.3
20260505084440 47 237 0.0 1.0 0.00 0.00 0.00 83 1016.2
20260505083937 48 237 0.0 1.0 0.00 0.00 0.00 82 1016.0
20260505083434 47 237 0.0 1.0 0.00 0.00 0.00 82 1016.2
20260505082931 48 237 0.0 0.0 0.00 0.00 0.00 83 1015.9
20260505082426 48 237 0.0 0.0 0.00 0.00 0.00 82 1016.3
20260505081924 47 237 0.0 0.0 0.00 0.00 0.00 84 1016.2
20260505081420 48 237 0.0 0.0 0.00 0.00 0.00 83 1016.2
20260505080917 48 238 0.0 0.0 0.00 0.00 0.00 83 1016.2
20260505080413 48 237 1.0 1.0 0.00 0.00 0.00 83 1016.0
20260505075908 48 238 0.0 0.0 0.00 0.00 0.00 83 1015.9
20260505075405 48 238 0.0 2.0 0.00 0.00 0.00 83 1015.8
20260505074903 48 238 0.0 1.0 0.00 0.00 0.00 83 1016.2
20260505074400 48 238 0.0 1.0 0.00 0.00 0.00 82 1015.8
20260505073857 48 239 0.0 1.0 0.00 0.00 0.00 82 1015.8
20260505073355 48 239 1.0 1.0 0.00 0.00 0.00 82 1015.9
20260505072852 48 240 0.0 0.0 0.00 0.00 0.00 82 1015.8
20260505072348 48 240 0.0 1.0 0.00 0.00 0.00 81 1015.8
20260505071844 48 251 1.0 1.0 0.00 0.00 0.00 82 1015.8
20260505071340 48 264 0.0 1.0 0.00 0.00 0.00 83 1015.8
20260505070839 48 264 0.0 1.0 0.00 0.00 0.00 83 1015.7
20260505070335 48 252 0.0 0.0 0.00 0.00 0.00 83 1015.8
20260505065830 48 260 0.0 2.0 0.00 0.00 0.00 83 1015.8
20260505065327 48 246 0.0 0.0 0.00 0.00 0.00 83 1015.7
20260505064824 48 250 0.0 0.0 0.00 0.00 0.00 83 1015.6
20260505064321 48 250 0.0 0.0 0.00 0.00 0.00 83 1015.6
20260505063820 48 251 0.0 1.0 0.00 0.00 0.00 82 1015.9
20260505063315 48 271 0.0 1.0 0.00 0.00 0.00 83 1015.8
20260505062812 48 271 0.0 0.0 0.00 0.00 0.00 81 1015.8
20260505062310 48 271 0.0 0.0 0.00 0.00 0.00 82 1015.9
20260505061806 48 268 0.0 1.0 0.00 0.00 0.00 82 1015.9
20260505061304 48 281 1.0 1.0 0.00 0.00 0.00 82 1015.9
20260505060802 48 244 0.0 0.0 0.00 0.00 0.00 83 1016.0
20260505060258 48 244 0.0 0.0 0.00 0.00 0.00 83 1015.8
20260505055754 48 244 0.0 0.0 0.00 0.00 0.00 81 1015.7
20260505055250 49 243 1.0 2.0 0.00 0.00 0.00 82 1015.8
20260505054747 49 246 1.0 1.0 0.00 0.00 0.00 81 1015.9
20260505054245 49 249 1.0 1.0 0.00 0.00 0.00 82 1016.0
20260505053743 49 249 0.0 0.0 0.00 0.00 0.00 82 1016.2
20260505053240 49 249 0.0 0.0 0.00 0.00 0.00 83 1015.9
20260505052737 49 249 0.0 0.0 0.00 0.00 0.00 82 1015.9
20260505052234 49 249 0.0 0.0 0.00 0.00 0.00 81 1015.9
20260505051731 49 249 0.0 0.0 0.00 0.00 0.00 82 1016.0
20260505051229 49 249 0.0 0.0 0.00 0.00 0.00 80 1016.0
20260505050726 50 249 0.0 1.0 0.00 0.00 0.00 82 1015.9
20260505050224 50 249 0.0 0.0 0.00 0.00 0.00 80 1016.0
20260505041654 51 265 0.0 0.0 0.00 0.00 0.00 79 1015.8
20260505041152 51 240 0.0 2.0 0.00 0.00 0.00 77 1015.8
20260505040648 50 251 0.0 0.0 0.00 0.00 0.00 81 1016.0
20260505040146 50 251 0.0 0.0 0.00 0.00 0.00 82 1016.0
20260505035642 51 252 0.0 0.0 0.00 0.00 0.00 82 1015.9
20260505035138 51 253 0.0 0.0 0.00 0.00 0.00 82 1016.4
20260505034635 51 253 0.0 0.0 0.00 0.00 0.00 82 1016.4
20260505034132 51 254 0.0 0.0 0.00 0.00 0.00 81 1016.3
20260505033628 51 255 0.0 0.0 0.00 0.00 0.00 81 1016.3
20260505033127 51 255 0.0 0.0 0.00 0.00 0.00 81 1016.3
20260505032625 52 255 0.0 0.0 0.00 0.00 0.00 80 1016.2
20260505032121 52 255 0.0 0.0 0.00 0.00 0.00 80 1016.5
20260505031618 52 255 0.0 0.0 0.00 0.00 0.00 79 1016.5
20260505031114 53 255 0.0 0.0 0.00 0.00 0.00 79 1016.5
20260505030611 53 254 0.0 0.0 0.00 0.00 0.00 78 1016.4
20260505030107 53 255 0.0 0.0 0.00 0.00 0.00 79 1016.5
20260505025603 53 255 0.0 0.0 0.00 0.00 0.00 78 1016.5
20260505025102 53 255 0.0 0.0 0.00 0.00 0.00 78 1016.5
20260505024559 54 256 0.0 0.0 0.00 0.00 0.00 77 1016.5
20260505024056 54 248 0.0 1.0 0.00 0.00 0.00 74 1016.7
20260505023553 54 276 1.0 2.0 0.00 0.00 0.00 75 1016.5
20260505023051 54 237 0.0 0.0 0.00 0.00 0.00 76 1016.3
20260505022548 54 236 0.0 1.0 0.00 0.00 0.00 76 1016.4
20260505022045 54 249 0.0 0.0 0.00 0.00 0.00 78 1016.4
20260505021542 54 250 0.0 0.0 0.00 0.00 0.00 77 1016.3
20260505021038 54 249 0.0 0.0 0.00 0.00 0.00 77 1016.3
20260505020538 55 249 0.0 0.0 0.00 0.00 0.00 77 1016.2
20260505020035 55 252 0.0 0.0 0.00 0.00 0.00 76 1016.2
20260505015532 55 242 0.0 1.0 0.00 0.00 0.00 75 1016.3
20260505015029 55 243 0.0 0.0 0.00 0.00 0.00 76 1016.3
20260505014526 56 243 0.0 0.0 0.00 0.00 0.00 74 1015.9
20260505014023 56 241 0.0 1.0 0.00 0.00 0.00 73 1015.9
20260505013520 56 244 0.0 0.0 0.00 0.00 0.00 75 1015.8
20260505013018 56 244 0.0 0.0 0.00 0.00 0.00 75 1015.8
20260505012516 56 244 0.0 0.0 0.00 0.00 0.00 75 1015.7
20260505012012 57 244 0.0 0.0 0.00 0.00 0.00 74 1015.7
20260505011508 58 244 0.0 0.0 0.00 0.00 0.00 73 1015.4
20260505011005 58 244 0.0 0.0 0.00 0.00 0.00 70 1015.4
20260505010500 58 244 0.0 0.0 0.00 0.00 0.00 71 1015.5
20260505005957 59 244 0.0 0.0 0.00 0.00 0.00 72 1015.4
20260505005454 59 244 0.0 0.0 0.00 0.00 0.00 69 1015.5
20260505004952 60 244 0.0 1.0 0.00 0.00 0.00 67 1015.4
20260505004448 60 241 0.0 0.0 0.00 0.00 0.00 69 1015.3
20260505003945 60 244 0.0 0.0 0.00 0.00 0.00 68 1015.2
20260505003442 60 247 0.0 0.0 0.00 0.00 0.00 68 1015.2
20260505002938 61 245 0.0 0.0 0.00 0.00 0.00 67 1015.3
20260505002434 62 245 0.0 1.0 0.00 0.00 0.00 62 1015.1
20260505001933 62 261 0.0 0.0 0.00 0.00 0.00 62 1015.0
20260505001430 63 234 1.0 2.0 0.00 0.00 0.00 60 1014.8
20260505000927 64 254 0.0 1.0 0.00 0.00 0.00 57 1014.7
20260505000427 64 252 0.0 3.0 0.00 0.00 0.00 54 1015.0
20260504235922 65 276 0.0 1.0 0.00 0.00 0.00 54 1015.2
20260504235419 66 223 1.0 2.0 0.00 0.00 0.00 53 1014.7
20260504234915 65 221 2.0 2.0 0.00 0.00 0.00 50 1014.7
20260504234413 65 249 0.0 1.0 0.00 0.00 0.00 51 1014.6
20260504233909 66 288 1.0 2.0 0.00 0.00 0.00 52 1014.4
20260504233405 66 180 3.0 3.0 0.00 0.00 0.00 49 1014.5
20260504232902 66 247 0.0 1.0 0.00 0.00 0.00 53 1014.4
20260504232359 67 261 0.0 0.0 0.00 0.00 0.00 50 1014.4
20260504231856 68 248 0.0 1.0 0.00 0.00 0.00 48 1014.4
20260504231352 68 312 2.0 2.0 0.00 0.00 0.00 47 1014.4
20260504230848 69 245 1.0 2.0 0.00 0.00 0.00 44 1014.4
20260504230346 69 274 1.0 2.0 0.00 0.00 0.00 40 1014.2
20260504225845 69 241 1.0 3.0 0.00 0.00 0.00 40 1014.3
20260504225341 70 173 3.0 3.0 0.00 0.00 0.00 40 1014.1
20260504224838 70 280 0.0 0.0 0.00 0.00 0.00 40 1014.1
20260504224335 73 280 1.0 1.0 0.00 0.00 0.00 39 1014.2
20260504223832 74 277 0.0 1.0 0.00 0.00 0.00 36 1014.1
20260504223327 75 266 1.0 4.0 0.00 0.00 0.00 28 1014.1
20260504222824 75 280 0.0 1.0 0.00 0.00 0.00 33 1014.1
20260504222321 76 287 1.0 1.0 0.00 0.00 0.00 32 1014.2
20260504221820 77 282 2.0 2.0 0.00 0.00 0.00 29 1014.3
20260504221316 76 273 1.0 1.0 0.00 0.00 0.00 33 1014.1
20260504220813 76 284 1.0 2.0 0.00 0.00 0.00 30 1014.0
20260504220309 75 267 2.0 3.0 0.00 0.00 0.00 30 1014.3
20260504215807 75 282 2.0 2.0 0.00 0.00 0.00 31 1014.2
20260504215304 75 301 4.0 4.0 0.00 0.00 0.00 31 1014.2
20260504214759 76 288 2.0 3.0 0.00 0.00 0.00 30 1014.3
20260504214256 77 321 4.0 4.0 0.00 0.00 0.00 28 1014.1
20260504213753 77 283 1.0 3.0 0.00 0.00 0.00 25 1014.4
20260504213249 77 288 1.0 2.0 0.00 0.00 0.00 29 1014.2
20260504212746 78 279 1.0 2.0 0.00 0.00 0.00 28 1014.3
20260504212242 78 253 2.0 3.0 0.00 0.00 0.00 24 1014.2
20260504211740 79 288 1.0 2.0 0.00 0.00 0.00 22 1014.3
20260504211236 78 277 0.0 3.0 0.00 0.00 0.00 23 1014.2
20260504210734 77 280 0.0 2.0 0.00 0.00 0.00 24 1014.3
20260504210231 76 265 0.0 2.0 0.00 0.00 0.00 24 1014.3
20260504205727 76 274 0.0 4.0 0.00 0.00 0.00 24 1014.4
20260504205225 77 252 2.0 3.0 0.00 0.00 0.00 25 1014.2
20260504204723 77 290 2.0 2.0 0.00 0.00 0.00 24 1014.3
20260504204221 77 260 1.0 4.0 0.00 0.00 0.00 22 1014.6
20260504203721 77 269 3.0 4.0 0.00 0.00 0.00 25 1014.6
20260504203218 77 250 1.0 3.0 0.00 0.00 0.00 25 1014.6
20260504202717 76 265 1.0 7.0 0.00 0.00 0.00 21 1014.7
20260504202215 76 300 2.0 3.0 0.00 0.00 0.00 27 1014.6
20260504201712 75 302 3.0 3.0 0.00 0.00 0.00 24 1014.8
20260504201209 76 296 3.0 8.0 0.00 0.00 0.00 26 1014.7
20260504200707 75 298 1.0 2.0 0.00 0.00 0.00 28 1014.8
20260504200203 76 297 3.0 4.0 0.00 0.00 0.00 26 1015.0
20260504195659 75 277 1.0 4.0 0.00 0.00 0.00 30 1015.1
20260504195155 76 284 1.0 2.0 0.00 0.00 0.00 29 1014.7
20260504194652 76 292 2.0 2.0 0.00 0.00 0.00 29 1015.1
20260504194148 76 358 1.0 2.0 0.00 0.00 0.00 30 1015.1
20260504193645 76 280 0.0 2.0 0.00 0.00 0.00 28 1015.1
20260504193143 75 279 1.0 1.0 0.00 0.00 0.00 29 1015.3
20260504192640 75 278 1.0 1.0 0.00 0.00 0.00 28 1015.4
20260504192138 76 299 2.0 3.0 0.00 0.00 0.00 32 1015.5
20260504191636 76 7 3.0 3.0 0.00 0.00 0.00 29 1015.7
20260504191132 74 280 0.0 1.0 0.00 0.00 0.00 29 1015.9
20260504190628 74 296 2.0 3.0 0.00 0.00 0.00 29 1015.9
20260504190125 74 280 1.0 2.0 0.00 0.00 0.00 30 1015.7
20260504185622 74 278 2.0 2.0 0.00 0.00 0.00 31 1015.9
20260504185118 75 277 2.0 2.0 0.00 0.00 0.00 30 1015.9
20260504184614 74 286 1.0 2.0 0.00 0.00 0.00 31 1016.2
20260504184109 73 204 2.0 2.0 0.00 0.00 0.00 32 1016.3
20260504183607 72 278 1.0 3.0 0.00 0.00 0.00 34 1016.3
20260504183105 72 318 3.0 4.0 0.00 0.00 0.00 35 1016.2
20260504182601 72 290 2.0 2.0 0.00 0.00 0.00 34 1016.2
20260504182059 72 285 2.0 2.0 0.00 0.00 0.00 35 1016.3
20260504181556 70 275 0.0 2.0 0.00 0.00 0.00 39 1016.2
20260504181054 70 286 2.0 6.0 0.00 0.00 0.00 38 1016.3
20260504180553 71 290 2.0 3.0 0.00 0.00 0.00 37 1016.4
20260504180051 70 272 1.0 2.0 0.00 0.00 0.00 38 1016.4
20260504175548 70 301 3.0 4.0 0.00 0.00 0.00 39 1016.5
20260504175045 70 294 2.0 4.0 0.00 0.00 0.00 39 1016.5
20260504174543 71 315 3.0 8.0 0.00 0.00 0.00 40 1016.5
20260504174039 70 306 1.0 2.0 0.00 0.00 0.00 39 1016.6
20260504173536 70 310 3.0 3.0 0.00 0.00 0.00 40 1016.7
20260504173033 70 279 2.0 3.0 0.00 0.00 0.00 39 1016.8
20260504172530 71 295 3.0 4.0 0.00 0.00 0.00 40 1016.7
20260504172026 69 259 1.0 4.0 0.00 0.00 0.00 43 1016.9
20260504171523 69 259 0.0 1.0 0.00 0.00 0.00 42 1017.0
20260504171020 69 256 0.0 3.0 0.00 0.00 0.00 41 1016.8
20260504170516 69 244 1.0 2.0 0.00 0.00 0.00 41 1016.9
20260504160436 64 200 1.0 2.0 0.00 0.00 0.00 49 1017.9
20260504150906 60 238 2.0 3.0 0.00 0.00 0.00 51 1018.5
20260504150402 60 255 1.0 1.0 0.00 0.00 0.00 57 1018.5
20260504141332 50 239 0.0 1.0 0.00 0.00 0.00 75 1019.2
20260504140829 50 239 1.0 1.0 0.00 0.00 0.00 73 1019.1
20260504140324 49 239 0.0 1.0 0.00 0.00 0.00 71 1019.0
20260504130754 43 254 0.0 0.0 0.00 0.00 0.00 81 1019.1
20260504130249 42 254 0.0 0.0 0.00 0.00 0.00 84 1018.9
20260504120213 37 254 0.0 0.0 0.00 0.00 0.00 94 1018.3
20260504110641 35 254 0.0 0.0 0.00 0.00 0.00 93 1018.3
20260504110137 35 254 0.0 0.0 0.00 0.00 0.00 93 1018.1